Погода в Дине-ле-Бене

Франция     44°05′38″N   6°14′06″E
темп.,
°C
ветер,
м/с
пор.,
м/с
влажн.,
%
обл.,
%
осадки,
мм/ч
давл.,
гПа
погр.,
м
7 марта, вс
вс701:00+5всв1195100 1.7 1026145
04:00+4в119299 0.0 102541
07:00+3в118896 0.0 102422
10:00+8зюз117278 0.0 1024523
13:00+9зюз227089 0.2 1023857
16:00+8зюз2270100 0.4 1020851
19:00+6зюз1383100 0.8 1019215
22:00+4зюз018590 0.0 101943
8 марта, пн
пн801:00+3всв019075 0.0 101923
04:00+2всв11937 0.0 101722
07:00+1всв11894 0.0 101722
10:00+8зсз01660 0.0 1016492
13:00+10з216030 0.0 10161031
16:00+9юз226599 0.1 1014678
19:00+5зюз118489 0.2 101522
22:00+4в008787 0.0 101622
9 марта, вт
вт901:00+5сз018293 0.0 101730
04:00+2с019257 0.1 101622
07:00+2св119229 0.1 101722
10:00+8сз11620 0.0 1017598
13:00+10з21484 0.1 10171447
16:00+9зюз225075 0.1 10151420
19:00+6с117083 0.2 101750
22:00+3св118426 0.0 101922
10 марта, ср
ср1001:00+2св118413 0.0 102022
04:00+2всв12790 0.0 102122
07:00+1всв11780 0.0 102122
10:00+9з10540 0.0 1023484
13:00+11зюз22459 0.0 10231203
16:00+10з335041 0.0 10221319
19:00+5зюз127821 0.0 102223
22:00+3всв01851 0.0 102522
11 марта, чт
чт1101:00+2св11871 0.0 102422
04:00+2ссв11878 0.0 102322
07:00+2св118348 0.0 102322
10:00+8зсз1155100 0.0 1022258
13:00+11зюз2343100 0.0 1021667
16:00+11зюз234898 0.0 1019754
19:00+6з117793 0.0 101923
22:00+5с1190100 0.0 102023